Regional Weather Roundup
Issued by NWS

Home | Current Version | Previous Version | Graphics & Text | Print | Product List | Glossary On
Versions: 1 2 3 4 5 6 7 8 9 10 11 12 13 14 15 16 17 18 19 20 21 22 23 24 25 26 27 28 29 30 31 32 33 34 35 36 37 38 39 40 41 42 43 44 45 46 47 48 49 50
000
ASUS43 KMPX 090801
RWRMN
WEATHER ROUNDUP FOR MINNESOTA
NATIONAL WEATHER SERVICE TWIN CITIES/CHANHASSEN MN
200 AM CST TUE FEB 09 2016


NOTE: "FAIR" INDICATES FEW OR NO CLOUDS BELOW 12,000 FEET WITH NO
SIGNIFICANT WEATHER AND/OR OBSTRUCTIONS TO VISIBILITY. N/A MEANS
CURRENT SKY AND/OR WEATHER CONDITIONS ARE NOT AVAILABLE.

MNZ060>063-068>070-090900-
   Twin Cities Metro

CITY           SKY/WX    TMP DP  RH WIND       PRES   REMARKS
TWIN CITIES    FLURRIES  11   2  67 NW14G25   30.00S WCI  -5
ST PAUL        CLOUDY    11   2  67 NW18G24   30.01S WCI  -7
CRYSTAL        CLOUDY    11   1  64 N16G26    30.00S WCI  -6
BLAINE         CLOUDY    10   3  72 N22       30.00R WCI  -9
LAKEVILLE      CLOUDY    10   3  72 NW17G23   29.98R WCI  -7
EDEN PRAIRIE   CLOUDY    12   2  64 N17G26    29.98F WCI  -5
SOUTH ST PAUL  CLOUDY    12   2  65 NW14G21   29.99S WCI  -3
LAKE ELMO      MOCLDY    10   3  72 NW10      29.99S WCI  -3
$$
MNZ001>005-007-008-013>017-022>024-027-028-090900-
   Northwest Minnesota

CITY           SKY/WX    TMP DP  RH WIND       PRES   REMARKS
BEMIDJI        PTCLDY     2  -3  79 NW14G22   30.10R WCI -16
HALLOCK        CLOUDY     0  -4  85 NW7       30.26S WCI -13
ROSEAU         PTCLDY     0  -6  78 NW10      30.19R WCI -17
WARROAD        CLOUDY     0  -6  78 NW5       30.18R WCI -10
CROOKSTON      CLEAR      3   0  85 N10       30.26R WCI -12
FOSSTON        CLOUDY    -2  -6  84 N10       30.17R WCI -19
DETROIT LAKES  FLURRIES   3   0  85 N13       30.15R WCI -14
MOORHEAD       CLEAR      5   0  78 N14       30.24R WCI -12
PARK RAPIDS    PTCLDY     5  -3  69 N15       30.07S WCI -13
MAHNOMEN       FAIR       1  -4  79 N13       30.16R WCI -16
$$
MNZ006-009>011-018-025>026-090900-
   North Central Minnesota

CITY           SKY/WX    TMP DP  RH WIND       PRES   REMARKS
BAUDETTE       CLOUDY     0  -6  76 NW12      30.12R WCI -17
FLAG ISLAND    CLOUDY    -4  -8  84 NW10      30.15R WCI -21
INTL FALLS     CLOUDY     2  -4  76 N16       30.07R WCI -18
WASKISH        CLEAR      1  -2  85 NW7       30.12R WCI -11
LONGVILLE      CLOUDY     3  -2  78 NW6       30.06R WCI  -8
GRAND RAPIDS   CLOUDY     1  -8  66 N22       30.01S WCI -21
CRANE LAKE     CLOUDY     1  -2  85 N10G16    30.04S WCI -14
ORR            CLOUDY     0  -6  78 NW10      30.00R WCI -17
COOK           CLOUDY     1  -4  78 NW9       30.00R WCI -14
WALKER         FAIR       2  -4  76 NW13G20   30.07S WCI -15
$$
MNZ012-019>021-037-090900-
   Northeast Minnesota

CITY           SKY/WX    TMP DP  RH WIND       PRES   REMARKS
DULUTH         CLOUDY     2  -5  72 N15       29.92F WCI -17
ELY            CLOUDY     0  -4  85 N6        29.95R WCI -12
HIBBING        CLOUDY     0  -5  79 NW18G25   29.98S WCI -21
EVELETH        CLOUDY     3  -4  72 N8        29.98R WCI -10
DULUTH HARBOR  CLOUDY     9   0  66 NW12G22   30.02S WCI  -6
TWO HARBORS    CLOUDY     7  -2  66 N12       29.92R WCI  -9
SILVER BAY     CLOUDY     7  -2  66 NW8G16    29.90S WCI  -6
GRAND MARAIS     N/A      8  -2  63 VRB3      29.93R
G MARAIS ARPRT CLOUDY     1  -8  66 NW25G37   29.78R HAZE    WCI -22
$$
MNZ029>031-032-039>041-046>048-054>057-064-090900-
   West Central Minnesota

CITY           SKY/WX    TMP DP  RH WIND       PRES   REMARKS
FERGUS FALLS   PTCLDY     3   0  85 N15       30.20R WCI -15
WHEATON        CLOUDY     9   3  78 NW17      30.21R WCI -10
MORRIS         PTCLDY     7   1  78 N24       30.12S WCI -15
ALEXANDRIA     MOCLDY     6  -1  73 N13       30.07S WCI -10
ELBOW LAKE     FAIR       4   0  81 NW16G22   30.14R WCI -15
WADENA         CLEAR      3  -2  78 N15       30.08R WCI -15
GLENWOOD       CLEAR      5   0  78 N12       30.08R WCI -11
APPLETON       CLEAR      9   1  72 N21G26    30.15S WCI -11
BENSON         CLOUDY     7   1  78 N13       30.11S WCI  -9
ORTONVILLE     CLOUDY     7   1  78 N20G25    30.16S WCI -13
MADISON        CLEAR      9   1  72 N23       30.16R WCI -12
WILLMAR        FAIR       9   3  78 NW20      30.08S WCI -11
$$
MNZ033>034-036-042>043-049>051-058-059-090900-
   Central Minnesota

CITY           SKY/WX    TMP DP  RH WIND       PRES   REMARKS
ST CLOUD       CLEAR      8   0  69 N10       30.04R WCI  -6
SAUK CENTRE    FAIR       6  -1  73 NW13      30.06S WCI -11
PAYNESVILLE    PTCLDY     7   1  74 NW9G17    30.06R WCI  -6
AITKIN         CLEAR      5  -6  61 NW8G17    30.02R WCI  -8
PINE RIVER     MOCLDY     3  -2  78 NW12G21   30.09R WCI -13
BRAINERD       PTCLDY     4  -3  73 N16       30.05R WCI -15
STAPLES        CLEAR      3  -4  72 N14G20    30.07S WCI -15
LONG PRAIRIE   FAIR       5   0  78 NW12G21   30.06R WCI -11
LITTLE FALLS   CLEAR      7   0  72 NW8G17    30.06R WCI  -6
LITCHFIELD     CLOUDY    10   7  85 NW15      30.04S WCI  -6
BUFFALO        PTCLDY    10   1  69 NW10      30.04S WCI  -4
MAPLE LAKE     MOCLDY    11   4  74 NW14G23   30.04R WCI  -5
$$
MNZ037-044-045-052-053-090900-
   East Central Minnesota

CITY           SKY/WX    TMP DP  RH WIND       PRES   REMARKS
PRINCETON      MOCLDY     9   1  72 NW10      30.02S WCI  -6
MORA           MOCLDY     7   0  72 N13       30.03R WCI  -9
CAMBRIDGE      MOCLDY     9   0  66 NW15G21   30.00S WCI  -8
RUSH CITY      CLOUDY     7  -1  70 NW15G22   30.01R WCI -10
MOOSE LAKE     PTCLDY     5  -4  66 N7        29.99S WCI  -7
HINCKLEY         N/A      7   0  72 N13G18    29.99S WCI  -9
CLOQUET        CLOUDY     3  -4  72 NW10G21   29.96S WCI -12
MCGREGOR       MOCLDY     5   0  78 NW16      30.02R WCI -14
$$
MNZ071>073-080-081-089-090-097-098-090900-
   Southwest Minnesota

CITY           SKY/WX    TMP DP  RH WIND       PRES   REMARKS
MONTEVIDEO     PTCLDY     7   1  78 N17       30.15R WCI -12
GRANITE FALLS  MOCLDY     9   4  78 NW18      30.14R WCI  -9
CANBY          MOCLDY    11   6  81 NW17G24   30.16R WCI  -7
MARSHALL       LGT SNOW   7   2  80 N24G30    30.12R WCI -14
REDWOOD FALLS  MOCLDY     8   3  80 NW15G22   30.08S WCI  -9
OLIVIA         MOCLDY    10   3  72 NW20      30.07R WCI  -8
PIPESTONE      CLEAR      9  -2  61 N18G28    30.08R WCI -10
WINDOM         LGT SNOW   7   3  85 NW28      30.02S WCI -16
WORTHINGTON    CLOUDY     7   0  72 N23G32    30.05S VSB 1   WCI -14
JACKSON        CLOUDY     9   1  72 N20G35    30.02S HAZE    WCI -11
TRACY          CLEAR      8   3  80 N22G29    30.09R WCI -12
SLAYTON        CLOUDY     6   3  89 N22G31    30.06R FOG     WCI -15
$$
MNZ065>067-074>077-082>085-091>093-090900-
   South Central Minnesota

CITY           SKY/WX    TMP DP  RH WIND       PRES   REMARKS
MANKATO        CLOUDY    12   3  67 NW20      29.99F WCI  -6
NEW ULM        CLOUDY     9   1  72 NW18G26   30.03R WCI -10
ST JAMES       CLOUDY     9   5  85 NW23      30.05S WCI -12
FAIRMONT       CLOUDY     9   0  66 NW21G26   29.99F WCI -11
GLENCOE        CLOUDY    12   6  76 NW15      30.02S WCI  -4
FARIBAULT      CLOUDY    10   3  72 NW16      29.98R WCI  -7
OWATONNA       CLOUDY    10   3  72 NW16G24   29.96R WCI  -7
WASECA         CLOUDY    12   5  73 NW21      29.99R WCI  -6
ALBERT LEA     CLOUDY    10   5  79 N17G24    29.94S WCI  -7
$$
MNZ078>079-086>088-094>096-090900-
   Southeast Minnesota

CITY           SKY/WX    TMP DP  RH WIND       PRES   REMARKS
ROCHESTER      CLOUDY    10   4  76 N28G33    29.91R BLWGSNOWWCI -12
RED WING       CLOUDY    10   0  61 N8        29.98R WCI  -1
STANTON        CLOUDY    13   5  70 N14G22    29.96S WCI  -2
DODGE CENTER   CLOUDY     9   3  78 N14G21    29.91S WCI  -8
WINONA         CLOUDY    14   9  79 N9        29.95R WCI   2
AUSTIN         CLOUDY    10   5  79 N14       29.93R WCI  -5
PRESTON        CLOUDY     9   3  75 N18G29    29.89S HAZE    WCI  -9
$$
ABBREVIATIONS USED IN REMARKS
   TC - TEMPERATURES IN CELSIUS
  WCI - WIND CHILL INDEX
   HX - HEAT INDEX
  VSB - VISIBILITY
$$



USA.gov is the U.S. government's official web portal to all federal, state and local government web resources and services.